Temperature
18 18 18 18 18 18 18 18 17 17 17 17 17 17 16 16 16 16 16 16 16 16 16 15 15 15 15 15 15 15 14 14 14 14 14 14 14 14 14 14 14 14 14
18 18 18 18 18 18 18 18 17 17 17 17 17 16 16 16 16 16 16 16 16 16 16 15 15 15 15 15 15 15 14 14 14 14 14 14 13 13 13 13 14 14 14
18 18 18 18 18 18 18 18 17 17 17 17 17 16 16 16 16 16 16 16 16 16 15 15 15 15 15 15 15 14 14 14 14 14 14 14 13 13 13 13 13 13 13
18 18 18 18 18 18 18 18 17 17 17 17 17 16 16 16 16 16 16 16 16 16 15 15 15 15 15 15 15 14 14 14 14 14 14 14 14 13 13 13 13 13 13
19 18 18 18 18 18 18 18 17 17 17 17 17 16 16 16 16 16 16 16 15 15 15 15 15 15 15 15 15 14 14 14 14 14 14 14 14 14 13 13 13 13 13
18 18 18 18 18 18 18 17 17 17 17 17 16 16 16 16 16 16 16 16 15 15 15 15 15 15 15 14 14 14 14 14 14 14 14 14 14 13 13 13 12 12 12
18 18 18 18 18 18 17 17 17 17 17 16 16 16 16 16 16 16 16 15 15 15 15 15 15 15 14 14 14 14 14 14 14 14 14 13 13 13 13 13 13 12 12
18 18 18 18 18 18 17 17 17 17 17 16 16 16 16 16 15 15 15 15 15 15 15 15 15 14 14 14 14 14 14 13 13 13 13 13 13 13 13 13 13 12 12
18 18 18 18 18 17 17 17 17 17 16 16 16 16 16 16 15 15 15 15 15 15 15 15 14 14 14 14 14 14 13 13 13 13 13 13 13 13 13 13 12 12 12
18 18 18 18 18 17 17 17 17 16 16 16 16 16 16 15 15 15 15 15 15 15 15 14 14 14 14 14 13 13 13 13 13 13 13 13 13 12 12 12 12 12 12
18 18 18 18 18 17 17 17 16 16 16 16 16 15 15 15 15 15 14 14 14 14 14 14 14 14 14 13 13 13 13 13 13 13 13 13 12 12 12 12 12 12 12
18 18 18 17 17 17 17 17 16 16 16 15 15 15 15 15 15 14 14 14 14 14 14 14 14 14 13 13 13 13 13 13 13 13 13 12 12 12 12 12 12 12 11
18 18 17 17 17 17 16 16 16 16 15 15 15 15 15 15 14 14 14 14 14 14 14 14 14 13 13 13 13 13 13 13 13 13 12 12 12 12 12 12 12 11 11
18 17 17 17 17 16 16 16 16 15 15 15 15 14 14 14 14 14 14 13 13 13 13 13 13 13 13 13 13 13 13 12 12 12 12 12 12 12 12 12 11 11 11
17 17 17 16 16 16 16 16 15 15 15 15 14 14 14 14 14 14 13 13 13 13 13 13 13 13 13 13 12 12 12 12 12 12 12 12 12 11 11 11 11 11 11
17 17 16 16 16 16 15 15 15 15 15 15 14 14 14 13 13 13 13 13 13 13 13 13 13 13 13 12 12 12 12 12 12 12 12 12 11 11 11 11 11 11 11
16 16 16 16 16 15 15 15 15 15 14 14 14 14 13 13 13 13 13 13 13 13 13 13 12 12 12 12 12 12 12 12 12 11 11 11 11 11 11 11 11 10 10
16 16 16 16 15 15 15 15 15 14 14 14 14 13 13 13 13 13 13 13 13 12 12 12 12 12 12 12 11 11 11 11 11 11 11 11 11 11 11 10 10 10 10
16 16 16 15 15 15 15 14 14 14 14 14 13 13 13 13 13 12 12 12 12 12 12 12 12 12 12 11 11 11 11 11 11 11 11 11 11 11 10 10 10 10 10
16 16 15 15 15 15 14 14 14 13 13 13 13 13 13 12 12 12 12 12 12 12 12 12 11 11 11 11 11 11 10 10 10 10 11 10 10 10 10 10 10 10 10
15 15 15 14 14 14 14 13 13 13 13 13 13 12 12 12 12 12 11 11 11 11 11 11 11 11 11 11 10 10 10 10 10 10 10 10 10 10 10 10 9 9 9
14 14 14 14 14 13 13 13 13 12 12 12 12 12 12 11 11 11 11 11 11 11 10 10 11 11 11 10 10 10 10 10 10 10 10 10 10 9 9 9 9 9 9
14 14 13 13 13 13 13 12 12 12 12 12 12 11 11 11 11 11 10 10 10 10 10 10 10 10 10 10 10 10 9 9 9 9 9 9 9 9 9 9 9 9 8
13 13 13 13 12 12 12 12 12 12 11 11 11 11 11 11 11 10 10 10 10 10 10 10 10 10 10 10 10 10 9 9 9 9 9 9 9 9 9 9 8 8 8
13 13 12 12 12 12 12 11 11 11 11 11 11 11 10 10 10 10 10 10 10 10 9 9 9 9 9 9 9 9 9 9 9 8 8 8 8 8 8 8 8 8 8
12 12 12 12 11 11 11 11 11 11 11 10 10 10 10 10 10 9 9 9 9 9 9 9 9 9 9 9 9 8 8 8 8 8 8 8 8 8 8 8 8 8 7
Wind_Speed
5 5 4 5 5 4 5 5 5 5 4 3 3 3 2 2 1 2 5 7 7 7 7 4 4 4 4 4 4 3 4 3 3 4 4 4 5 5 4 4 4 5 6
5 5 4 5 5 5 5 5 5 5 5 4 3 3 3 2 1 1 3 5 6 6 7 5 4 3 4 4 4 3 3 2 2 3 3 3 4 4 4 3 3 3 4
10 8 6 5 5 5 6 6 5 5 5 5 3 3 3 2 2 1 1 1 5 6 7 6 5 4 4 4 3 3 4 2 0 2 3 3 1 1 3 3 3 3 3
9 8 7 6 6 5 5 6 6 5 4 5 5 5 4 3 3 2 2 1 3 5 7 7 6 4 3 3 3 3 2 3 1 0 1 2 4 3 0 2 3 2 2
9 8 8 7 6 6 5 5 6 5 4 5 6 5 4 3 2 2 2 1 1 3 6 6 5 4 3 3 3 3 3 2 3 2 1 1 2 2 3 0 2 3 2
9 8 6 6 5 4 4 5 6 5 4 5 5 6 6 5 4 3 3 2 1 1 3 5 4 4 3 3 3 3 3 2 3 2 2 2 2 2 2 2 1 1 2
9 8 7 6 5 5 5 5 6 5 4 5 5 6 6 6 6 5 4 3 2 1 3 3 3 3 4 4 3 3 3 3 3 2 2 2 2 2 3 3 2 1 1
9 9 9 8 7 6 5 6 6 5 4 5 5 5 5 4 3 4 4 4 4 3 4 4 3 4 4 4 3 3 2 3 3 3 2 2 1 2 3 3 4 2 1
8 8 8 7 7 6 6 6 6 5 4 4 4 4 5 4 4 4 4 3 3 3 4 4 3 3 3 4 4 3 2 3 3 3 3 2 1 2 2 3 4 4 2
7 7 7 7 7 7 6 6 5 5 3 3 4 3 4 4 4 4 3 4 3 3 4 4 3 3 3 3 3 3 2 3 2 2 3 2 1 2 2 2 2 3 4
7 7 6 7 7 6 6 6 5 4 3 3 3 3 3 3 3 3 3 3 3 4 5 5 5 4 4 3 3 3 3 3 2 2 3 3 2 2 2 2 2 2 3
7 6 6 5 5 6 6 6 5 5 5 4 3 3 3 3 3 3 3 3 3 3 5 5 5 5 4 4 4 4 4 4 4 4 3 3 2 2 2 2 2 2 2
6 5 5 5 5 5 5 6 6 5 4 4 4 3 2 3 3 4 3 3 3 3 3 4 5 5 5 5 4 4 4 4 5 5 5 4 4 3 2 3 3 2 2
6 6 5 5 5 5 5 5 5 5 4 4 4 4 4 4 3 4 3 3 3 4 4 4 4 4 4 5 4 4 4 4 4 4 5 5 5 5 5 4 4 3 2
5 6 6 5 4 4 4 5 5 5 5 5 5 5 4 3 2 2 3 3 3 4 3 3 3 3 3 4 4 4 4 4 3 3 3 4 6 6 6 4 4 4 3
4 5 6 6 5 5 5 5 5 5 6 6 6 4 4 3 3 3 2 3 3 2 3 3 4 4 3 4 6 5 4 4 4 3 3 3 4 5 6 6 7 7 5
4 4 5 5 6 6 5 5 5 4 4 5 4 4 5 4 4 4 3 3 4 3 3 4 4 4 5 5 6 6 4 4 4 4 4 2 3 3 3 4 4 5 6
4 4 4 4 4 5 5 5 4 4 4 4 4 4 4 4 4 3 4 4 4 3 4 4 4 4 4 6 6 6 4 4 4 5 5 5 4 4 4 4 3 4 5
5 5 5 4 3 3 4 4 4 4 4 4 4 5 4 4 4 4 5 4 3 3 4 3 4 4 5 6 6 5 3 3 4 4 5 5 5 7 6 5 4 4 4
2 3 2 2 2 2 3 4 4 3 4 5 5 5 5 5 5 5 4 3 3 3 3 3 3 4 5 6 6 6 4 4 4 3 4 6 6 7 7 6 6 6 6
2 2 2 2 1 2 3 3 3 4 5 4 3 3 4 5 5 4 2 2 2 2 2 3 3 3 4 5 6 7 4 5 4 4 4 4 7 7 7 7 6 8 6
2 2 2 1 1 1 2 3 3 4 3 3 2 3 4 4 3 2 2 2 3 2 3 3 3 3 4 4 5 7 7 5 4 5 4 5 7 7 7 6 6 7 4
1 1 2 1 0 1 2 3 4 3 2 2 3 3 4 4 3 3 4 3 3 3 3 3 4 4 3 4 6 6 7 7 5 5 6 6 7 6 6 6 6 5 4
1 1 1 1 1 1 2 3 3 2 2 3 4 3 3 3 3 3 3 4 4 4 4 4 5 4 3 3 3 3 4 5 5 4 4 5 6 5 4 4 4 4 4
1 1 2 2 3 2 2 3 2 3 3 4 4 4 4 4 4 4 4 5 5 6 6 6 5 5 5 7 6 4 4 4 4 3 1 1 2 2 2 2 3 3 3
1 0 1 2 3 2 2 2 2 2 3 3 4 4 4 4 4 3 3 5 6 6 7 8 7 6 8 7 7 7 7 5 4 3 3 4 4 5 5 4 4 3 4
Wind_Direction
192 180 163 148 135 138 143 142 139 139 127 117 111 105 107 105 98 101 110 116 121 124 124 121 118 113 111 113 107 104 86 72 84 79 54 33 38 49 47 57 71 70 76
176 186 172 160 148 154 159 142 145 152 151 148 143 148 145 141 136 102 94 117 131 133 131 127 129 122 116 108 105 109 108 99 82 99 87 38 12 16 31 40 60 55 72
183 185 178 172 158 159 166 162 168 168 164 151 127 106 83 68 63 69 86 130 139 135 132 135 135 132 131 135 134 132 132 150 281 92 124 126 191 312 352 21 42 46 57
185 183 180 175 173 176 174 167 172 171 168 151 147 152 156 169 193 184 179 156 135 134 140 141 141 144 143 146 155 145 139 143 163 21 87 139 152 147 352 344 2 25 51
183 181 182 182 178 178 177 172 165 168 166 157 162 162 165 180 173 150 146 141 130 140 148 147 148 153 156 162 155 140 139 142 147 151 132 102 89 107 135 189 331 355 350
182 180 178 168 173 174 169 164 161 165 165 159 160 165 170 169 159 159 163 170 169 163 160 153 151 158 162 170 168 157 148 146 138 133 130 140 141 157 140 157 202 295 317
177 177 175 175 177 175 169 158 154 164 173 167 169 176 177 174 176 179 181 179 177 182 190 167 169 172 175 169 159 155 157 155 146 146 144 147 161 156 147 142 159 183 292
177 178 182 181 180 178 173 164 160 167 179 180 185 181 173 170 184 190 183 186 188 193 189 173 170 175 173 167 153 151 167 159 154 152 149 139 154 144 150 154 147 122 339
179 179 181 179 176 175 174 173 169 173 185 189 187 184 177 172 177 184 181 182 188 187 174 162 162 159 160 161 153 151 168 158 163 162 154 148 161 146 153 150 154 151 168
174 176 177 176 174 174 169 164 163 169 176 184 188 187 182 179 173 165 180 186 191 182 168 168 165 159 158 156 155 158 165 143 158 165 152 154 166 155 144 150 152 150 159
176 178 181 185 175 165 163 164 169 164 166 177 176 163 169 174 169 169 188 198 199 184 184 184 178 174 174 175 169 176 165 159 168 168 162 175 170 155 155 150 146 144 146
172 168 168 168 168 172 176 177 176 176 180 179 172 169 165 162 172 189 204 202 202 198 193 185 187 191 193 193 189 195 187 178 182 185 172 188 176 165 169 162 168 171 160
155 154 155 161 174 182 183 182 179 183 181 173 166 164 165 171 190 200 211 211 207 205 195 179 188 199 202 203 204 200 199 196 197 192 187 194 176 193 199 184 187 190 166
161 161 167 175 178 178 179 180 186 183 175 166 166 178 191 191 201 204 203 208 203 198 196 193 196 203 205 201 200 193 193 190 196 202 201 199 194 200 200 197 196 187 169
168 175 181 185 181 177 179 184 189 189 182 174 179 198 202 195 187 192 203 204 198 202 200 198 207 208 203 204 194 188 186 186 194 209 214 212 211 212 203 196 190 179 175
182 187 184 183 185 186 190 191 194 198 187 185 194 198 195 195 201 207 206 205 207 209 200 201 203 208 221 217 199 184 185 189 190 201 222 227 215 217 212 206 194 183 183
183 186 194 194 197 198 193 196 199 189 179 188 198 196 196 198 205 208 204 214 216 205 213 216 208 219 228 214 201 191 183 194 197 200 206 219 214 199 198 209 207 212 213
178 185 197 203 207 201 198 196 184 178 182 193 203 202 194 200 207 208 214 220 218 212 216 224 220 225 241 223 209 200 190 196 204 207 206 203 214 214 197 195 211 232 234
186 194 199 197 196 198 194 182 183 187 192 206 210 207 199 203 207 216 225 226 217 222 225 223 220 224 242 230 216 196 191 210 220 221 214 206 214 224 207 191 209 237 261
168 177 172 157 158 187 165 161 182 188 213 223 220 212 201 204 214 222 228 232 224 228 225 226 223 226 235 237 223 200 190 210 226 239 241 230 224 225 211 201 205 227 241
141 120 115 137 200 192 147 154 180 211 227 228 216 210 208 212 216 220 222 229 229 232 235 235 239 236 241 245 236 213 202 211 216 229 241 244 236 231 225 219 214 227 225
103 114 127 158 231 191 161 169 207 231 230 214 212 219 222 225 222 210 228 226 211 219 239 245 260 261 255 246 243 230 223 219 214 229 234 237 235 234 234 232 234 230 215
136 136 148 162 257 210 179 200 233 233 214 205 223 230 225 228 223 212 223 234 228 222 234 237 246 260 259 255 252 245 238 229 224 233 234 237 237 234 235 238 230 217 204
185 178 150 176 251 239 209 220 236 215 196 218 230 228 217 230 234 226 221 222 226 230 234 236 242 252 256 251 247 243 244 239 241 248 243 238 238 232 234 233 225 219 215
230 191 194 226 251 254 245 255 246 209 211 224 230 228 220 218 226 230 230 230 232 226 225 232 232 232 244 248 237 223 226 224 227 216 221 235 237 231 236 234 236 233 229
208 222 245 252 264 265 266 275 259 206 208 230 237 228 222 222 220 226 257 260 248 253 243 241 238 243 247 253 242 239 239 238 222 192 215 227 227 227 228 230 235 233 231
Height
1538 1539 1540 1541 1542 1543 1544 1545 1546 1546 1547 1547 1547 1547 1548 1548 1548 1549 1549 1549 1549 1550 1550 1550 1550 1550 1551 1551 1551 1551 1551 1551 1551 1551 1551 1551 1551 1551 1551 1551 1551 1551 1550
1536 1538 1539 1540 1541 1542 1543 1544 1545 1546 1546 1546 1547 1547 1548 1548 1548 1549 1549 1549 1549 1550 1550 1550 1550 1550 1550 1550 1551 1551 1550 1551 1551 1551 1550 1551 1553 1552 1552 1552 1551 1551 1551
1534 1535 1537 1538 1540 1541 1542 1543 1544 1545 1546 1546 1546 1547 1547 1548 1548 1548 1548 1549 1549 1550 1550 1550 1550 1550 1550 1550 1550 1550 1550 1550 1551 1551 1551 1551 1551 1552 1553 1552 1552 1552 1551
1532 1534 1535 1537 1538 1539 1541 1542 1543 1544 1544 1545 1546 1546 1546 1547 1547 1548 1548 1548 1549 1549 1549 1549 1550 1550 1550 1550 1550 1550 1550 1550 1550 1550 1551 1551 1551 1551 1552 1553 1552 1552 1551
1530 1531 1533 1535 1536 1538 1539 1540 1542 1542 1543 1544 1545 1545 1545 1546 1547 1547 1547 1547 1548 1548 1548 1549 1549 1549 1549 1549 1549 1549 1549 1549 1549 1549 1549 1550 1550 1550 1550 1551 1551 1551 1551
1528 1530 1532 1533 1535 1536 1537 1539 1540 1541 1542 1542 1543 1544 1544 1545 1545 1546 1546 1546 1547 1547 1547 1548 1548 1548 1548 1548 1548 1548 1548 1548 1549 1549 1549 1549 1549 1549 1549 1549 1550 1550 1550
1526 1528 1530 1531 1533 1534 1535 1537 1538 1539 1540 1541 1542 1542 1543 1544 1544 1544 1545 1545 1545 1546 1546 1546 1546 1547 1547 1547 1547 1547 1547 1547 1547 1548 1548 1548 1548 1548 1548 1548 1548 1549 1549
1524 1526 1527 1529 1531 1532 1534 1535 1536 1537 1538 1539 1540 1541 1541 1542 1542 1543 1544 1544 1544 1544 1545 1545 1545 1545 1545 1546 1546 1546 1546 1546 1546 1546 1547 1547 1547 1547 1547 1547 1547 1547 1548
1522 1524 1526 1528 1529 1531 1532 1533 1535 1536 1536 1537 1538 1539 1539 1540 1541 1541 1542 1542 1542 1543 1543 1543 1543 1544 1544 1544 1544 1544 1544 1545 1545 1545 1545 1545 1545 1545 1546 1546 1546 1547 1545
1521 1522 1524 1526 1527 1529 1531 1532 1533 1534 1535 1535 1536 1537 1537 1538 1538 1539 1540 1540 1541 1541 1541 1541 1541 1542 1542 1542 1542 1543 1543 1543 1543 1543 1544 1544 1544 1544 1544 1544 1544 1545 1545
1519 1521 1523 1524 1526 1527 1529 1530 1531 1532 1533 1533 1533 1534 1535 1535 1536 1536 1537 1538 1538 1539 1539 1539 1539 1540 1540 1540 1541 1541 1541 1541 1541 1542 1542 1542 1542 1542 1542 1542 1542 1542 1542
1517 1519 1521 1523 1524 1525 1526 1527 1529 1530 1531 1531 1532 1532 1532 1533 1533 1534 1534 1535 1535 1536 1536 1537 1537 1537 1538 1538 1538 1539 1539 1539 1539 1539 1540 1540 1540 1540 1540 1540 1540 1540 1540
1516 1518 1519 1521 1522 1523 1524 1525 1526 1527 1528 1529 1529 1530 1530 1530 1530 1531 1532 1532 1532 1533 1534 1534 1534 1535 1535 1536 1536 1536 1536 1537 1537 1537 1537 1537 1537 1537 1538 1538 1538 1538 1537
1515 1516 1517 1518 1520 1521 1522 1523 1524 1525 1526 1526 1526 1527 1527 1527 1528 1528 1529 1529 1530 1530 1531 1531 1532 1532 1533 1533 1533 1534 1534 1534 1534 1535 1535 1535 1535 1535 1535 1535 1535 1535 1535
1513 1514 1515 1516 1518 1519 1520 1521 1521 1522 1523 1523 1523 1524 1524 1525 1525 1526 1526 1526 1527 1527 1528 1528 1528 1529 1529 1530 1530 1530 1531 1531 1531 1532 1532 1532 1532 1532 1532 1532 1532 1532 1532
1511 1512 1513 1514 1515 1516 1517 1518 1519 1519 1520 1520 1520 1521 1522 1522 1522 1523 1523 1524 1524 1524 1525 1525 1525 1525 1526 1526 1527 1527 1527 1528 1528 1528 1528 1529 1529 1529 1529 1529 1529 1529 1529
1509 1510 1511 1511 1512 1513 1514 1515 1516 1517 1517 1517 1517 1518 1519 1519 1520 1520 1520 1520 1520 1520 1521 1521 1521 1522 1522 1523 1523 1524 1524 1524 1524 1524 1525 1525 1525 1525 1525 1525 1525 1525 1525
1507 1508 1509 1509 1510 1511 1512 1513 1513 1514 1514 1514 1514 1515 1515 1516 1517 1517 1517 1517 1517 1517 1517 1517 1518 1518 1519 1519 1519 1520 1520 1520 1520 1521 1521 1521 1521 1521 1522 1521 1521 1521 1521
1505 1506 1507 1507 1508 1508 1509 1510 1510 1511 1511 1511 1511 1512 1512 1513 1513 1513 1513 1513 1513 1513 1513 1514 1514 1514 1514 1515 1515 1516 1516 1516 1516 1517 1517 1517 1517 1517 1518 1517 1517 1517 1517
1504 1504 1504 1505 1505 1506 1506 1506 1507 1507 1507 1508 1508 1509 1509 1509 1509 1509 1509 1509 1509 1509 1509 1509 1509 1510 1510 1511 1511 1512 1512 1512 1512 1512 1513 1513 1513 1513 1513 1513 1513 1512 1512
1502 1502 1502 1502 1502 1503 1503 1503 1503 1503 1504 1505 1505 1505 1505 1505 1505 1505 1505 1505 1505 1505 1505 1505 1505 1505 1506 1506 1506 1507 1507 1507 1507 1507 1507 1508 1508 1509 1509 1509 1508 1508 1508
1500 1500 1500 1500 1500 1500 1500 1500 1500 1500 1501 1501 1501 1501 1501 1501 1501 1501 1501 1501 1501 1501 1501 1501 1500 1501 1501 1501 1501 1502 1502 1502 1502 1502 1502 1502 1503 1504 1504 1504 1504 1504 1504
1498 1498 1498 1498 1498 1497 1497 1497 1497 1497 1497 1497 1497 1497 1497 1497 1497 1497 1497 1497 1497 1497 1496 1496 1496 1496 1496 1496 1497 1497 1497 1497 1497 1497 1497 1498 1498 1498 1498 1498 1498 1498 1498
1496 1496 1495 1495 1494 1494 1494 1494 1494 1494 1494 1493 1493 1493 1492 1493 1493 1493 1493 1493 1492 1492 1492 1492 1491 1491 1491 1491 1491 1492 1492 1492 1492 1492 1492 1492 1492 1492 1492 1493 1493 1492 1492
1493 1493 1492 1492 1491 1490 1490 1490 1490 1489 1489 1489 1488 1488 1488 1488 1488 1488 1488 1488 1488 1488 1488 1487 1487 1487 1486 1486 1487 1487 1486 1486 1487 1486 1486 1486 1486 1486 1486 1486 1487 1487 1486
1490 1490 1489 1488 1488 1487 1486 1486 1486 1486 1485 1484 1484 1483 1483 1483 1483 1483 1483 1483 1483 1483 1483 1483 1482 1482 1482 1482 1482 1482 1482 1482 1482 1481 1480 1480 1480 1480 1481 1481 1481 1481 1480